CAPE
412 487 516 496 409 265 116 161 335 491 558 535 485 568 774 741 716 787 883 913 846 782 1007 1090 983 880 1261 1071 1123 1057 1184 1125 793 808 845 1071 1258 1547 1156 823 326 101 92
220 358 304 332 370 531 454 223 109 256 344 462 432 457 623 789 759 764 797 990 920 865 928 894 819 848 794 868 828 988 1076 1022 1076 962 966 861 1091 1327 1158 740 104 37 108
15 36 0 16 110 328 458 544 577 686 588 317 245 210 361 529 554 771 1011 1108 1044 977 823 808 744 944 982 998 933 988 1052 1069 1072 1191 1191 1021 958 740 324 149 109 112 198
0 0 0 0 0 39 280 565 791 840 713 469 253 87 0 156 253 512 772 979 957 895 839 816 929 982 1063 1281 1202 1316 1419 1342 1219 1297 1203 1184 938 636 361 375 371 371 307
0 0 0 3 0 34 168 258 411 709 729 682 569 521 357 236 114 139 261 686 874 1034 1024 934 934 972 1013 1046 1118 1030 1201 1078 1152 1095 1151 1056 1014 883 727 362 530 559 698
0 0 0 5 4 1 2 66 172 252 309 422 431 597 943 896 471 619 581 924 1018 969 872 961 1077 1027 1003 916 927 821 807 953 1019 952 867 761 811 665 463 589 594 725 791
0 0 0 0 0 0 1 8 12 16 7 57 72 127 268 252 154 304 553 1004 1145 1189 1201 1206 1075 781 690 760 784 714 852 773 747 959 853 773 525 410 383 290 281 492 688
0 0 0 0 0 0 0 0 0 0 0 0 0 2 6 0 0 0 60 438 618 621 593 595 709 800 703 647 739 723 667 601 586 437 514 562 494 471 422 489 412 315 425
0 0 0 0 0 0 0 0 0 0 0 0 0 0 0 0 0 0 0 46 177 278 330 414 483 563 78 140 582 658 728 775 681 521 480 423 362 285 173 272 504 474 626
0 0 0 0 0 0 0 0 0 0 0 0 0 0 0 0 0 0 0 5 13 62 185 139 0 0 0 0 78 280 455 512 455 513 550 556 353 339 152 154 473 551 626
0 0 0 0 0 0 0 0 0 0 0 0 0 0 0 0 0 0 0 0 0 0 0 0 0 0 0 0 0 0 0 0 0 0 70 210 250 235 227 171 64 124 279
0 0 0 0 0 0 0 0 0 0 0 0 0 0 0 0 0 0 0 0 0 0 0 0 0 0 0 0 0 0 0 0 0 0 0 0 0 0 0 0 62 144 154
0 0 0 0 0 0 0 0 0 0 0 0 0 0 0 0 0 0 0 0 0 0 0 0 0 0 0 0 0 0 0 0 0 0 0 0 0 0 0 0 0 2 21
0 0 0 0 0 0 0 0 0 0 0 0 0 0 0 0 0 0 0 0 0 0 0 0 0 0 0 0 0 0 0 0 0 0 0 5 6 5 9 11 7 4 2
0 0 0 0 0 0 0 0 0 0 0 0 0 0 0 0 0 0 0 0 0 0 0 0 0 0 0 0 0 0 0 0 0 0 0 0 0 1 1 4 4 7 11
0 0 0 0 0 0 0 0 0 0 0 0 0 0 0 0 0 0 0 0 0 0 0 0 0 0 0 0 0 0 0 0 0 0 0 0 0 0 0 2 4 6 15
0 0 0 0 0 0 0 0 0 0 0 0 0 0 0 0 0 0 0 0 0 0 0 0 0 0 0 0 0 0 0 0 0 0 0 0 0 0 0 0 0 1 1
0 0 0 0 0 0 0 0 0 0 0 0 0 0 0 0 0 0 0 0 0 0 0 0 0 0 0 0 0 0 0 0 0 0 0 0 0 0 0 0 0 0 3
0 0 0 0 0 0 0 0 0 0 0 0 0 0 0 0 0 0 0 0 0 0 0 1 7 2 0 0 0 0 0 0 0 0 0 0 0 1 0 0 0 0 0
0 0 0 0 0 0 0 0 0 0 0 0 0 0 0 0 0 0 0 0 0 3 1 0 5 0 0 0 0 0 0 0 0 0 0 0 0 1 0 0 0 0 0
0 0 0 0 0 0 0 0 0 0 0 0 0 0 0 0 0 0 0 0 0 0 2 3 5 5 0 0 0 0 0 0 1 2 2 1 1 1 2 1 1 0 0
0 0 0 0 0 0 0 0 0 0 0 0 0 0 0 0 0 0 2 2 1 1 0 0 0 4 2 2 3 3 2 1 0 1 2 2 1 0 0 2 2 0 0
0 0 0 0 0 0 0 0 0 0 0 0 0 0 0 0 0 0 1 2 0 2 7 8 2 0 5 4 5 5 4 4 3 3 3 1 0 3 1 1 2 0 1
0 0 0 0 0 0 0 0 0 0 0 0 0 0 0 0 0 0 1 0 2 6 4 7 8 0 0 7 13 7 4 4 0 1 2 2 3 3 1 2 4 5 3
0 0 0 0 0 0 0 0 0 0 0 0 0 0 0 0 0 1 2 2 2 1 5 7 7 5 2 4 9 10 7 0 0 0 1 3 4 5 4 3 2 3 3
0 0 0 0 0 0 0 0 0 0 0 0 0 0 0 0 0 1 1 2 2 4 6 6 6 8 7 5 4 2 0 0 0 0 0 2 2 2 2 2 2 2 2
CIN
-47 -43 -47 -55 -69 -97 -129 -157 -102 -68 -65 -69 -69 -58 -42 -50 -48 -45 -38 -32 -35 -43 -46 -51 -58 -79 -61 -62 -75 -78 -70 -85 -77 -104 -144 -123 -105 -93 -131 -183 -271 -338 -360
-66 -55 -69 -61 -66 -49 -54 -96 -139 -87 -82 -73 -91 -80 -55 -37 -37 -37 -27 -25 -27 -28 -30 -37 -45 -67 -68 -72 -78 -57 -61 -75 -56 -67 -88 -104 -81 -85 -124 -172 -322 -373 -350
-109 -80 -0 -77 -94 -68 -64 -48 -55 -54 -69 -90 -108 -101 -86 -63 -51 -35 -25 -24 -22 -27 -33 -35 -38 -43 -44 -45 -46 -38 -40 -45 -44 -29 -30 -76 -80 -111 -184 -241 -280 -273 -285
-0 -0 -0 -0 -0 -139 -89 -65 -45 -42 -47 -62 -89 -115 -0 -99 -80 -56 -40 -30 -26 -27 -36 -41 -37 -34 -28 -20 -23 -21 -25 -24 -38 -27 -25 -31 -58 -90 -162 -154 -152 -193 -190
-0 -0 -0 -152 -0 -156 -142 -111 -86 -63 -61 -65 -66 -60 -75 -83 -83 -63 -52 -33 -26 -20 -26 -29 -33 -32 -30 -29 -23 -20 -23 -20 -22 -18 -15 -27 -27 -32 -37 -137 -109 -119 -107
-0 -0 -0 -209 -231 -0 -2 -163 -121 -107 -97 -94 -86 -72 -47 -42 -81 -60 -47 -29 -22 -21 -17 -23 -27 -31 -28 -33 -33 -40 -38 -23 -13 -18 -20 -18 -21 -36 -72 -65 -76 -65 -64
-0 -0 -0 -0 -0 -0 -0 -145 -139 -127 -133 -176 -179 -167 -106 -102 -133 -105 -76 -30 -23 -23 -21 -19 -22 -32 -42 -42 -40 -47 -44 -48 -44 -24 -20 -19 -49 -58 -88 -115 -118 -92 -72
-0 -0 -0 -0 -0 -0 -0 -0 -0 -0 -0 -0 -0 -119 -229 -0 -0 -0 -59 -69 -52 -59 -64 -60 -48 -45 -50 -60 -52 -45 -43 -51 -56 -71 -68 -58 -68 -66 -79 -72 -108 -132 -136
-0 -0 -0 -0 -0 -0 -0 -0 -0 -0 -0 -0 -0 -0 -0 -0 -0 -0 -0 -142 -140 -90 -81 -78 -75 -68 -231 -140 -56 -45 -49 -52 -60 -74 -86 -101 -107 -114 -132 -109 -63 -47 -56
-0 -0 -0 -0 -0 -0 -0 -0 -0 -0 -0 -0 -0 -0 -0 -13 -0 -0 -0 -147 -127 -110 -80 -106 -0 -0 -0 -0 -58 -92 -70 -66 -81 -73 -68 -80 -101 -96 -131 -141 -51 -32 -21
-0 -0 -0 -0 -0 -0 -0 -0 -0 -0 -0 -0 -0 -0 -0 -0 -0 -0 -0 -0 -0 -0 -0 -0 -0 -0 -0 -0 -0 -0 -0 -0 -0 -0 -96 -145 -141 -128 -111 -113 -171 -128 -65
-0 -0 -0 -0 -0 -0 -0 -0 -0 -0 -0 -0 -0 -0 -0 -0 -0 -0 -0 -0 -0 -0 -0 -0 -0 -0 -0 -0 -0 -0 -0 -0 -0 -0 -0 -0 -0 -0 -0 -0 -200 -159 -156
-0 -0 -0 -0 -0 -0 -0 -0 -0 -0 -0 -0 -0 -0 -0 -0 -0 -0 -0 -0 -0 -0 -0 -0 -0 -0 -0 -0 -0 -0 -0 -0 -0 -0 -0 -0 -0 -0 -0 -0 -0 -25 -254
-0 -0 -0 -0 -0 -0 -0 -0 -0 -0 -0 -0 -0 -0 -0 -0 -0 -0 -0 -0 -0 -0 -0 -0 -0 -0 -0 -0 -0 -0 -0 -0 -0 -0 -0 -0 -0 -0 -0 -0 -0 -0 -0
-0 -0 -0 -0 -0 -0 -0 -0 -0 -0 -0 -0 -0 -0 -0 -0 -0 -0 -0 -0 -0 -0 -0 -0 -0 -0 -0 -0 -0 -0 -0 -0 -0 -0 -0 -0 -0 -0 -0 -0 -1 -0 -17
-0 -0 -0 -0 -0 -0 -0 -0 -0 -0 -0 -0 -0 -0 -0 -0 -0 -0 -0 -0 -0 -0 -0 -0 -0 -0 -0 -0 -0 -0 -0 -0 -0 -0 -0 -0 -0 -0 -0 -1 -2 -4 -0
-0 -0 -0 -0 -0 -0 -0 -0 -0 -0 -0 -0 -0 -0 -0 -0 -0 -0 -0 -0 -0 -0 -0 -0 -0 -0 -0 -0 -0 -0 -0 -0 -0 -0 -0 -0 -0 -0 -0 -0 -0 -0 -0
-0 -0 -0 -0 -0 -0 -0 -0 -0 -0 -0 -0 -0 -0 -0 -0 -0 -0 -0 -0 -0 -0 -0 -0 -0 -0 -0 -0 -0 -0 -0 -0 -0 -0 -0 -0 -0 -0 -0 -0 -0 -0 -1
-0 -0 -0 -0 -0 -0 -0 -0 -0 -0 -0 -0 -0 -0 -0 -0 -0 -0 -0 -0 -0 -0 -0 -0 -0 -0 -0 -0 -0 -0 -0 -0 -0 -0 -0 -0 -0 -0 -0 -0 -0 -0 -0
-0 -0 -0 -0 -0 -0 -0 -0 -0 -0 -0 -0 -0 -0 -0 -0 -0 -0 -0 -0 -0 -0 -0 -0 -5 -16 -0 -0 -0 -0 -0 -0 -0 -0 -0 -0 -0 -0 -0 -0 -0 -0 -0
-0 -0 -0 -0 -0 -0 -0 -0 -0 -0 -0 -0 -0 -0 -0 -0 -0 -0 -0 -0 -0 -0 -0 -0 -0 -6 -0 -0 -0 -0 -0 -0 -0 -0 -0 -0 -0 -0 -0 -0 -0 -0 -0
-0 -0 -0 -0 -0 -0 -0 -0 -0 -0 -0 -0 -0 -0 -0 -0 -0 -0 -0 -0 -0 -0 -0 -0 -0 -0 -0 -0 -0 -0 -0 -0 -0 -0 -0 -0 -0 -0 -0 -0 -0 -0 -0
-0 -0 -0 -0 -0 -0 -0 -0 -0 -0 -0 -0 -0 -0 -0 -0 -0 -0 -0 -0 -0 -0 -0 -1 -3 -0 -0 -0 -0 -0 -0 -0 -0 -0 -0 -0 -0 -0 -0 -0 -0 -0 -0
-0 -0 -0 -0 -0 -0 -0 -0 -0 -0 -0 -0 -0 -0 -0 -0 -0 -0 -0 -0 -0 -0 -0 -0 -0 -0 -0 -0 -0 -1 -1 -0 -0 -0 -0 -0 -0 -0 -0 -0 -0 -0 -0
-0 -0 -0 -0 -0 -0 -0 -0 -0 -0 -0 -0 -0 -0 -0 -0 -0 -0 -0 -0 -0 -0 -0 -0 -0 -0 -0 -0 -0 -0 -0 -1 -0 -0 -0 -0 -0 -0 -0 -0 -0 -0 -0
-0 -0 -0 -0 -0 -0 -0 -0 -0 -0 -0 -0 -0 -0 -0 -0 -0 -0 -0 -0 -0 -0 -0 -0 -0 -0 -0 -0 -0 -0 -0 -0 -0 -0 -0 -0 -0 -0 -0 -0 -0 -0 -0
Wind_Speed
22 23 21 22 22 21 21 25 26 23 24 24 23 23 25 24 21 21 22 22 24 23 21 23 23 21 22 23 22 22 22 22 25 25 22 23 20 26 23 24 28 29 24
18 20 21 22 24 25 23 20 23 26 26 25 20 22 24 24 21 22 22 21 23 24 22 22 25 22 24 24 25 24 23 22 23 27 24 23 24 25 20 28 28 28 22
14 16 19 21 24 26 28 26 23 23 22 22 22 19 19 18 20 22 23 22 22 23 22 21 20 19 22 23 24 24 24 23 23 22 24 21 23 23 29 27 26 22 24
15 15 17 20 23 25 26 26 24 23 22 23 22 23 22 20 20 20 22 24 23 23 21 21 22 21 23 23 22 25 24 25 21 22 24 20 15 19 23 26 23 25 22
20 16 17 19 21 22 22 20 19 19 20 21 23 24 23 23 24 26 22 24 25 26 25 24 24 24 25 26 25 28 26 27 26 26 26 25 28 27 25 19 23 25 25
17 21 20 18 19 19 20 18 15 16 17 17 19 21 23 23 25 26 27 27 27 27 28 28 27 28 29 30 30 29 26 26 28 24 25 27 22 21 24 31 29 30 26
5 7 11 16 17 17 19 18 15 16 16 17 18 18 18 19 21 22 25 26 27 27 29 30 30 28 27 27 28 26 25 20 15 20 29 30 29 30 31 33 30 23 13
6 8 10 12 13 13 13 15 15 16 17 18 19 19 19 20 21 22 23 23 25 26 27 28 29 30 29 29 30 31 31 30 27 22 19 22 21 23 19 21 21 11 11
6 7 9 11 12 12 12 14 15 18 18 19 19 19 20 20 22 23 24 25 26 28 28 28 29 29 29 30 30 32 34 34 30 28 24 21 19 17 14 20 17 15 12
8 9 11 12 12 13 13 14 15 16 17 17 18 19 18 19 19 21 22 24 26 27 28 25 23 23 27 28 30 31 33 34 32 32 32 31 27 24 23 17 21 19 21
9 10 11 11 12 13 14 15 16 16 17 18 17 18 18 20 20 22 24 24 24 26 26 25 25 26 28 29 29 30 32 34 35 34 34 34 33 32 30 27 24 23 25
10 11 12 13 13 14 14 15 16 16 17 17 18 19 19 20 21 23 25 26 27 29 29 28 28 29 29 31 31 31 32 33 33 33 34 34 35 35 33 31 30 27 25
12 14 14 15 15 15 16 16 17 18 19 19 20 21 22 22 22 25 26 27 27 28 28 29 31 31 29 30 32 33 32 31 33 34 36 37 35 36 36 34 33 32 31
14 15 16 17 18 18 18 19 20 20 21 22 23 25 25 26 27 28 28 28 28 28 29 30 31 30 31 32 32 31 30 31 33 34 35 36 36 36 37 36 36 36 36
16 17 18 19 19 19 20 21 21 21 22 23 25 26 27 28 30 31 30 31 32 33 33 31 32 33 34 35 34 33 32 31 33 35 37 37 37 37 38 38 38 38 38
16 17 18 18 19 20 20 21 21 22 22 23 24 26 26 27 31 33 33 33 32 33 32 35 36 37 37 38 37 36 34 35 35 36 36 36 38 38 38 38 38 39 38
17 17 17 19 20 21 21 22 23 24 23 25 26 27 28 30 32 33 34 35 33 33 35 37 38 38 38 38 37 35 36 35 35 35 36 37 38 39 40 40 40 40 41
17 16 17 18 19 20 21 22 23 25 27 28 28 29 31 33 35 35 36 36 36 35 36 38 39 39 39 37 35 35 36 37 37 37 38 37 38 38 40 41 41 42 42
15 16 17 18 19 19 20 21 23 25 27 29 31 31 32 34 35 36 37 37 39 39 39 39 38 38 37 37 37 37 38 39 39 39 39 39 39 40 41 41 41 42 44
15 15 17 18 19 20 22 23 25 27 29 31 32 34 35 37 38 38 38 39 40 41 42 43 41 39 39 39 40 40 40 40 41 41 41 42 41 41 43 43 43 45 45
16 15 15 17 19 20 22 24 26 28 30 32 34 35 37 39 40 40 41 42 42 43 44 44 44 42 41 41 42 43 43 44 44 45 45 45 45 46 45 45 46 46 47
16 17 18 19 20 21 23 24 26 28 30 33 34 36 37 38 40 42 43 43 44 44 45 47 48 48 46 47 48 48 49 49 49 49 49 49 48 49 48 49 49 50 50
17 19 20 21 22 23 25 27 29 31 33 35 37 39 40 41 43 44 44 45 46 46 46 46 49 49 48 48 48 51 52 53 52 51 53 53 53 53 52 53 54 54 53
16 17 18 20 22 24 26 28 29 31 33 36 38 40 42 44 45 45 45 46 46 46 47 47 47 49 49 48 47 47 50 52 52 54 54 55 55 55 54 55 55 55 55
18 19 20 21 23 24 26 28 30 33 35 36 39 40 42 44 45 46 46 46 46 46 46 46 47 48 49 49 49 50 49 50 50 50 51 53 56 57 56 56 56 57 57
19 20 21 22 24 24 26 28 30 32 34 35 37 39 42 44 44 44 45 44 45 44 46 45 45 46 46 46 46 47 48 49 49 49 48 49 51 53 55 57 59 59 60
Wind_Direction
253 254 256 254 257 259 262 244 237 244 243 245 249 251 240 249 263 263 263 261 257 268 276 273 277 288 285 288 295 301 306 312 313 322 339 344 359 343 357 359 346 332 305
257 257 260 259 257 254 259 264 253 243 246 249 274 267 262 258 268 264 265 270 267 268 275 283 275 288 285 287 289 297 305 315 321 314 334 345 345 340 5 339 306 312 291
262 262 265 268 263 260 256 258 265 268 271 270 263 275 278 281 277 269 268 272 274 273 280 286 294 300 295 292 292 294 304 311 319 328 331 345 345 346 323 336 297 283 302
265 269 273 276 271 269 267 263 266 272 273 269 272 272 272 278 279 280 276 270 275 277 288 290 288 296 296 298 302 294 300 306 323 327 326 346 7 1 349 302 285 296 282
261 269 274 285 281 276 275 275 275 276 276 275 271 272 275 278 275 273 283 279 278 276 280 287 287 291 290 291 297 289 299 303 309 316 320 326 319 295 277 358 271 281 281
261 261 274 284 284 286 278 277 280 282 284 285 284 282 280 281 277 275 272 274 275 277 276 278 284 285 283 277 281 291 302 305 303 319 322 318 252 252 336 306 323 324 339
283 283 286 276 283 293 279 276 281 284 288 290 291 292 291 292 293 290 284 282 280 280 280 278 279 288 292 293 293 300 305 317 329 325 308 308 315 311 314 306 319 336 345
290 287 292 302 319 314 294 279 282 286 293 292 293 293 295 292 296 296 294 291 289 288 287 287 287 287 290 291 292 291 294 298 307 317 322 322 325 327 332 333 334 335 335
0 336 330 321 326 323 313 295 295 293 300 300 295 297 299 298 297 298 296 293 292 291 291 291 290 290 292 293 293 292 291 292 302 308 314 320 324 328 331 331 332 335 328
358 327 330 329 324 317 314 313 304 306 315 321 307 297 300 306 308 310 303 296 295 296 294 295 301 302 300 300 298 297 295 297 301 302 303 306 314 318 319 320 323 322 324
345 346 332 332 340 332 331 324 319 319 322 318 323 317 311 304 301 307 310 302 299 297 296 296 299 300 301 301 301 299 298 299 299 302 303 304 306 309 311 313 314 313 313
347 348 345 342 345 346 343 338 333 331 329 329 324 321 323 316 306 305 308 303 296 293 291 295 298 299 300 297 301 302 302 301 301 303 304 305 305 306 309 311 312 312 311
327 327 326 330 335 336 336 330 329 327 322 321 320 316 314 317 316 308 306 310 297 291 292 296 297 297 302 301 301 302 304 304 302 301 301 304 307 308 308 309 309 310 309
320 320 320 320 319 320 321 321 320 318 317 316 312 310 310 309 309 309 309 311 309 303 302 301 300 303 300 298 302 305 307 305 304 303 304 305 306 308 308 309 308 308 307
313 313 315 315 316 316 316 315 315 316 314 312 311 310 308 305 306 308 307 304 301 301 300 303 301 299 299 298 300 302 305 306 305 305 304 304 306 306 307 309 309 307 306
314 312 312 312 313 313 312 313 317 317 317 316 315 311 310 309 307 305 304 305 305 304 303 300 298 299 297 296 296 298 300 302 304 305 306 306 306 307 306 307 308 309 307
309 311 312 313 312 311 312 312 309 313 316 316 314 314 314 310 309 308 306 304 305 305 302 299 298 299 299 298 297 298 298 301 303 305 305 306 306 306 306 305 305 305 305
307 310 311 311 312 313 313 313 313 313 310 311 315 314 312 311 310 309 307 306 304 304 302 299 299 300 299 299 299 299 299 300 301 302 303 304 305 306 305 305 304 303 303
311 310 310 312 313 316 317 317 317 316 315 313 313 314 315 313 311 309 308 305 303 301 301 300 302 302 301 300 299 299 298 298 299 300 301 301 302 303 303 303 304 304 303
310 310 309 309 311 313 314 315 315 315 315 314 313 313 312 311 310 309 308 306 303 301 300 298 298 299 299 299 298 298 298 298 298 298 298 298 300 301 300 301 301 301 301
304 306 310 313 314 316 316 316 316 315 315 314 314 314 312 310 309 307 305 305 304 301 300 300 299 297 297 297 296 296 296 295 296 296 296 296 296 296 297 297 298 299 300
299 301 304 306 309 312 314 316 317 317 317 316 316 316 315 313 310 308 306 304 303 302 300 297 295 294 294 294 293 293 292 292 292 293 293 293 293 293 294 294 295 295 296
297 298 301 304 307 309 311 315 316 317 317 317 317 316 316 315 313 311 308 306 304 302 301 299 298 295 295 294 293 292 290 290 291 291 290 290 290 290 290 290 291 292 292
298 301 303 305 307 308 310 312 316 319 320 321 320 319 318 316 315 313 311 309 306 304 303 300 298 297 296 295 294 294 292 291 290 289 288 287 287 288 288 288 288 288 290
293 296 300 305 308 309 310 312 314 317 319 321 321 321 321 320 317 315 313 311 308 306 304 303 302 299 297 296 295 294 293 293 292 292 290 287 285 285 285 286 286 286 286
287 292 298 303 307 308 309 311 315 318 320 322 324 325 323 323 320 318 316 313 311 309 307 305 304 303 301 300 299 297 296 294 293 292 291 289 288 287 286 285 284 284 284